Weather reports worldwide

Advertisment
Beirut, Lebanon (40100): temperature & dewpoint: 12.08.2019 04:00:00 - 18.08.2019 04:00:00 (EEST)Beirut, Lebanon (40100): wind speed: 12.08.2019 04:00:00 - 18.08.2019 04:00:00 (EEST)Beirut, Lebanon (40100): wind direction: 12.08.2019 04:00:00 - 18.08.2019 04:00:00 (EEST)Beirut, Lebanon (40100): reduced air pressure: 12.08.2019 04:00:00 - 18.08.2019 04:00:00 (EEST)Beirut, Lebanon (40100): visibility: 12.08.2019 04:00:00 - 18.08.2019 04:00:00 (EEST)
Date & Time tt [°C] td [°C] ff [km/h] ff [kn] dd ppp [hPa] vv [km]
18.08.2019 04:00:00 - - - - - - -
18.08.2019 03:00:00 27,6 20,1 5 3 - 1007,8 10
18.08.2019 02:00:00 - - - - - - -
18.08.2019 01:00:00 - - - - - - -
18.08.2019 00:00:00 27,2 20,9 11 6 SSE 1008,4 10
17.08.2019 23:00:00 - - - - - - -
17.08.2019 22:00:00 - - - - - - -
17.08.2019 21:00:00 28,0 21,4 15 8 SW 1008,5 20
17.08.2019 20:00:00 - - - - - - -
17.08.2019 19:00:00 - - - - - - -
17.08.2019 18:00:00 29,7 21,5 15 8 WSW 1008,6 20
17.08.2019 17:00:00 - - - - - - -
17.08.2019 16:00:00 - - - - - - -
17.08.2019 15:00:00 30,6 22,4 21 11 WSW 1009,4 10
17.08.2019 14:00:00 - - - - - - -
17.08.2019 13:00:00 - - - - - - -
17.08.2019 12:00:00 30,5 22,3 21 11 WSW 1010,2 10
17.08.2019 11:00:00 - - - - - - -
17.08.2019 10:00:00 - - - - - - -
17.08.2019 09:00:00 28,8 21,2 16 9 SSW 1010,2 30
17.08.2019 08:00:00 - - - - - - -
17.08.2019 07:00:00 - - - - - - -
17.08.2019 06:00:00 26,7 20,4 9 5 SSE 1009,0 20
17.08.2019 05:00:00 - - - - - - -
17.08.2019 04:00:00 - - - - - - -
17.08.2019 03:00:00 27,6 20,8 8 4 - 1009,2 20
17.08.2019 02:00:00 - - - - - - -
17.08.2019 01:00:00 - - - - - - -
17.08.2019 00:00:00 27,9 20,9 5 3 - 1010,0 20
16.08.2019 23:00:00 - - - - - - -
16.08.2019 22:00:00 - - - - - - -
16.08.2019 21:00:00 28,3 20,7 5 3 W 1009,7 40
16.08.2019 20:00:00 - - - - - - -
16.08.2019 19:00:00 - - - - - - -
16.08.2019 18:00:00 30,1 20,3 9 5 - 1009,0 20
16.08.2019 17:00:00 - - - - - - -
16.08.2019 16:00:00 - - - - - - -
16.08.2019 15:00:00 30,9 21,3 13 7 - 1009,6 10
16.08.2019 14:00:00 - - - - - - -
16.08.2019 13:00:00 - - - - - - -
16.08.2019 12:00:00 29,8 22,9 13 7 - 1010,5 10
16.08.2019 11:00:00 - - - - - - -
16.08.2019 10:00:00 - - - - - - -
16.08.2019 09:00:00 29,2 21,6 8 4 - 1010,1 20
16.08.2019 08:00:00 - - - - - - -
16.08.2019 07:00:00 - - - - - - -
16.08.2019 06:00:00 27,6 14,1 9 5 E 1009,4 20
16.08.2019 05:00:00 - - - - - - -
16.08.2019 04:00:00 - - - - - - -
16.08.2019 03:00:00 29,0 9,5 8 4 - 1008,8 30
16.08.2019 02:00:00 - - - - - - -
16.08.2019 01:00:00 - - - - - - -
16.08.2019 00:00:00 29,9 10,3 8 4 E 1009,9 30
15.08.2019 23:00:00 - - - - - - -
15.08.2019 22:00:00 - - - - - - -
15.08.2019 21:00:00 28,2 22,6 4 2 - 1010,1 10
15.08.2019 20:00:00 - - - - - - -
15.08.2019 19:00:00 - - - - - - -
15.08.2019 18:00:00 29,5 22,4 9 5 W 1010,0 20
15.08.2019 17:00:00 - - - - - - -
15.08.2019 16:00:00 - - - - - - -
15.08.2019 15:00:00 30,6 22,4 15 8 W 1010,7 20
15.08.2019 14:00:00 - - - - - - -
15.08.2019 13:00:00 - - - - - - -
15.08.2019 12:00:00 30,7 22,8 24 13 SW 1010,9 10
15.08.2019 11:00:00 - - - - - - -
15.08.2019 10:00:00 - - - - - - -
15.08.2019 09:00:00 30,1 19,7 16 9 SW 1009,4 20
15.08.2019 08:00:00 - - - - - - -
15.08.2019 07:00:00 - - - - - - -
15.08.2019 06:00:00 27,2 18,4 9 5 SSE 1008,9 20
15.08.2019 05:00:00 - - - - - - -
15.08.2019 04:00:00 - - - - - - -
15.08.2019 03:00:00 26,9 20,6 13 7 S 1009,0 10
15.08.2019 02:00:00 - - - - - - -
15.08.2019 01:00:00 - - - - - - -
15.08.2019 00:00:00 27,4 21,3 11 6 - 1009,2 10
14.08.2019 23:00:00 - - - - - - -
14.08.2019 22:00:00 - - - - - - -
14.08.2019 21:00:00 28,2 22,1 13 7 SW 1009,2 20
14.08.2019 20:00:00 - - - - - - -
14.08.2019 19:00:00 - - - - - - -
14.08.2019 18:00:00 29,3 22,2 15 8 WSW 1008,9 20
14.08.2019 17:00:00 - - - - - - -
14.08.2019 16:00:00 - - - - - - -
14.08.2019 15:00:00 30,9 22,7 18 10 SW 1008,9 20
14.08.2019 14:00:00 - - - - - - -
14.08.2019 13:00:00 - - - - - - -
14.08.2019 12:00:00 30,6 23,4 21 11 WSW 1008,8 20
14.08.2019 11:00:00 - - - - - - -
14.08.2019 10:00:00 - - - - - - -
14.08.2019 09:00:00 28,9 23,9 21 11 SSW 1008,8 10
14.08.2019 08:00:00 - - - - - - -
14.08.2019 07:00:00 - - - - - - -
14.08.2019 06:00:00 27,0 15,3 8 4 E 1007,4 30
14.08.2019 05:00:00 - - - - - - -
14.08.2019 04:00:00 - - - - - - -
14.08.2019 03:00:00 27,9 15,8 8 4 E 1007,4 30
14.08.2019 02:00:00 - - - - - - -
14.08.2019 01:00:00 - - - - - - -
14.08.2019 00:00:00 28,5 16,6 4 2 - 1007,9 20
13.08.2019 23:00:00 - - - - - - -
13.08.2019 22:00:00 - - - - - - -
13.08.2019 21:00:00 28,5 24,6 5 3 SW 1007,8 20
13.08.2019 20:00:00 - - - - - - -
13.08.2019 19:00:00 - - - - - - -
13.08.2019 18:00:00 29,8 23,9 15 8 SW 1007,2 20
13.08.2019 17:00:00 - - - - - - -
13.08.2019 16:00:00 - - - - - - -
13.08.2019 15:00:00 30,5 23,8 16 9 WSW 1007,3 20
13.08.2019 14:00:00 - - - - - - -
13.08.2019 13:00:00 - - - - - - -
13.08.2019 12:00:00 30,3 24,6 15 8 WSW 1007,9 20
13.08.2019 11:00:00 - - - - - - -
13.08.2019 10:00:00 - - - - - - -
13.08.2019 09:00:00 28,5 23,7 11 6 SW 1007,5 20
13.08.2019 08:00:00 - - - - - - -
13.08.2019 07:00:00 - - - - - - -
13.08.2019 06:00:00 26,7 22,4 5 3 ESE 1006,5 10
13.08.2019 05:00:00 - - - - - - -
13.08.2019 04:00:00 - - - - - - -
13.08.2019 03:00:00 27,4 23,1 5 3 - 1006,5 10
13.08.2019 02:00:00 - - - - - - -
13.08.2019 01:00:00 - - - - - - -
13.08.2019 00:00:00 28,3 22,9 9 5 - 1007,1 10
12.08.2019 23:00:00 - - - - - - -
12.08.2019 22:00:00 - - - - - - -
12.08.2019 21:00:00 28,3 24,0 11 6 SW 1006,9 20
12.08.2019 20:00:00 - - - - - - -
12.08.2019 19:00:00 - - - - - - -
12.08.2019 18:00:00 29,6 23,7 11 6 WSW 1006,5 20
12.08.2019 17:00:00 - - - - - - -
12.08.2019 16:00:00 - - - - - - -
12.08.2019 15:00:00 31,2 23,2 16 9 WSW 1007,4 20
12.08.2019 14:00:00 - - - - - - -
12.08.2019 13:00:00 - - - - - - -
12.08.2019 12:00:00 30,1 22,4 18 10 WSW 1007,9 20
12.08.2019 11:00:00 - - - - - - -
12.08.2019 10:00:00 - - - - - - -
12.08.2019 09:00:00 28,8 22,9 15 8 SW 1007,6 10
12.08.2019 08:00:00 - - - - - - -
12.08.2019 07:00:00 - - - - - - -
12.08.2019 06:00:00 26,0 18,8 8 4 ESE 1006,8 10
12.08.2019 05:00:00 - - - - - - -
12.08.2019 04:00:00 - - - - - - -

tt = temperature
td = dewpoint
ff = wind speed
dd = wind direction
ppp = reduced air pressure
vv = visibility

Next stations